User: anonymous   Login
Location: Unspecified
(0.0000°N, 0.0000°E)
Time: 00:26:10
(UTC+01:00)
Language:

Cosmos 1626 Rocket - Orbit

View from above orbital plane
View from above orbital plane
View from above satellite
View from above satellite

Ground track
Ground track

The orbit data is extracted from the following two-line orbital elements,

1 15495U 85009B   15059.59191362  .00000461  00000-0  53062-4 0  9993
2 15495 082.5219 253.7571 0019338 216.4274 143.5626 14.83471866625472
Epoch (UTC): 28 February 2015 14:12:21
Eccentricity: 0.0019338
inclination: 82.5219°
perigee height: 605 km
apogee height: 632 km
right ascension of ascending node: 253.7571°
argument of perigee: 216.4274°
revolutions per day: 14.83471866
mean anomaly at epoch: 143.5626°
orbit number at epoch: 62547

The dashed part of the orbit path shows where the satellite is in the earth's shadow,  

DLR